Home > Weather > Anderson > Past weeks

Flag for U.S.A. Weather for the Past 2 Weeks in Anderson, South Carolina, U.S.A.

Now
47 °F

Mostly cloudy.


Feels Like: 41 °F
Forecast: 35 / 53 °F
Wind: 13 mph from West

Location: Anderson County Airport

Current Time: Feb 8, 2016 at 12:59:20 PM

Latest Report: Feb 8, 2016 at 11:56 AM


Visibility: 10 mi

Pressure: 29.77 "Hg

Humidity: 48%

Dew point: 28 °F

Location of AndersonLocation

Historic Weather in Anderson — Graph

°F

Anderson Temperature Yesterday

Maximum temperature yesterday: 58 °F (at 2:56 PM)
Minimum temperature yesterday: 31 °F (at 6:56 AM)
Average temperature yesterday: 44 °F

High & Low Weather Summary for the Past Weeks

 TemperatureHumidityPressure
High68 °F (Feb 1, 2:56 PM)100% (Jan 27, 6:56 AM)30.42 "Hg (Jan 27, 6:56 AM)
Low27 °F (Jan 25, 7:56 AM)19% (Feb 5, 2:56 PM)29.77 "Hg (Feb 8, 11:56 AM)
Average48 °F64%30.07 "Hg
* Reported Jan 24 11:56 AM — Feb 8 11:56 AM, Anderson, Weather by CustomWeather, © 2016

Note: Actual official high and low records may vary slightly from our data, if they occured in-between our weather recording intervals... More about our weather records

Advertising

Anderson Weather History for the Previous 24 Hours

 ConditionsComfort  
Time TempWeatherWind HumidityBarometerVisibility
11:56 AM
Mon, Feb 8
47 °FMostly cloudy.13 mph48%29.77 "Hg10 mi
10:56 AM48 °FBroken clouds.15 mph46%29.78 "Hg10 mi
9:56 AM44 °FPartly sunny.7 mph55%29.78 "Hg10 mi
8:56 AM40 °FSunny.6 mph63%29.80 "Hg10 mi
7:56 AM35 °FPartly sunny.6 mph72%29.82 "Hg10 mi
6:56 AM33 °FPassing clouds.6 mph72%29.82 "Hg10 mi
5:56 AM35 °FClear.3 mph61%29.82 "Hg10 mi
4:56 AM38 °FClear.3 mph55%29.84 "Hg10 mi
3:56 AM38 °FClear.7 mph55%29.86 "Hg10 mi
2:56 AM39 °FClear.6 mph55%29.87 "Hg10 mi
1:56 AM31 °FClear.No wind79%29.90 "Hg10 mi
12:56 AM31 °FClear.No wind79%29.92 "Hg10 mi
11:56 PM
Sun, Feb 7
37 °FClear.No wind65%29.92 "Hg10 mi
10:56 PM38 °FClear.No wind63%29.93 "Hg10 mi
9:56 PM44 °FClear.5 mph43%29.92 "Hg10 mi
8:56 PM45 °FClear.7 mph45%29.93 "Hg10 mi
7:56 PM45 °FClear.5 mph45%29.93 "Hg10 mi
6:56 PM48 °FClear.3 mph37%29.93 "Hg10 mi
5:56 PM52 °FSunny.3 mph31%29.92 "Hg10 mi
4:56 PM56 °FSunny.9 mph24%29.91 "Hg10 mi
3:56 PM57 °FSunny.10 mph23%29.93 "Hg10 mi
2:56 PM58 °FSunny.8 mph21%29.96 "Hg10 mi
1:56 PM56 °FSunny.7 mph23%29.99 "Hg10 mi
12:56 PM54 °FSunny.8 mph27%30.05 "Hg10 mi
Weather by CustomWeather, © 2016

See weather overviewHow to use our weather pages